Location: Goudex
(43.3760°N, 0.9543°E)
Time: 17:24:48
(UTC+00:00)

Cosmos 2016 Rocket - Pass Details

Date: 20 November 2019
Orbit: 947 x 1000 km, 83.0° (Epoch: 12 December)

Event Time Altitude Azimuth Distance (km) Brightness Sun altitude
Rises 05:33:40 0° 204° (SSW) 3,659 6.9 -14.8°
Reaches altitude 10° 05:36:15 10° 210° (SSW) 2,723 6.2 -14.3°
Maximum altitude 05:42:15 48° 283° (WNW) 1,272 4.2 -13.2°
Drops below altitude 10° 05:48:23 10° 357° (N) 2,770 6.2 -12.2°
Sets 05:51:03 0° 4° (N) 3,728 6.9 -11.7°
